Location: *
(29.1167°S, 130.0000°E)
Time: 06:45:04
(UTC+00:00)

Cosmos 2333 Rocket - Pass Details

Date: 21 July 2019
Orbit: 842 x 860 km, 70.8° (Epoch: 21 August)

Event Time Altitude Azimuth Distance (km) Brightness Sun altitude
Rises 10:22:35 0° 187° (S) 3,463 5.3 -21.6°
Reaches altitude 10° 10:25:22 10° 177° (S) 2,521 4.5 -22.2°
Enters shadow 10:26:48 17° 167° (SSE) 2,090 4.0 -22.5°
